Location: *
(51.8167°N, 12.5000°E)
Time: 07:15:35
(UTC+00:00)

Cosmos 614 Rocket - Pass Details

Date: 16 September 2019
Orbit: 733 x 764 km, 74.1° (Epoch: 22 October)

Event Time Altitude Azimuth Distance (km) Brightness Sun altitude
Rises 19:33:29 0° 332° (NNW) 3,242 8.3 -19.8°
Reaches altitude 10° 19:35:53 10° 329° (NNW) 2,310 7.4 -20.1°
Maximum altitude 19:41:02 58° 251° (WSW) 884 4.4 -20.8°
Enters shadow 19:43:50 26° 182° (S) 1,461 5.1 -21.1°
